sat.trackr.live / text

‹ back to catalog

ONEWEB-0237

NORAD 48770 · 2021-045D

PAYLOAD ACTIVE UNKNOWN

§ Identity

Operator
Country
UK
Launch date
2021-05-28
Launch site
VOSTO
Launch vehicle
Mass (kg)
RCS (m²)

Purposes: comms

External: N2YO · Heavens-Above · Gunter

§ Orbital elements

Epoch: 2026-09-19T22:06:22.012704Z

Period
109.46 min
Inclination
87.8987°
Eccentricity
0.0001670
Mean motion
13.15549552 rev/d
Perigee alt
1,200.5 km
Apogee alt
1,203.0 km
Semi-major
7,579.9 km
B*
3.7716e-4
RAAN
240.3132°
Arg perigee
84.4062°
Mean anomaly
275.7259°
Rev number
25,684

§ Raw data

ONEWEB-02371 48770U 21045D   26262.92108811  .00000155  00000+0  37716-3 0  99932 48770  87.8987 240.3132 0001670  84.4062 275.7259 13.15549552256840

JSON: /api/v1/satellites/48770 · /tle

For live sub-satellite position, see the globe view (requires WebGL).

§ Visibility from observer

Set your observer location to see the next 7 days of passes ≥ 10°. The values pass through the URL so the page stays shareable.

No JS? Fill the form by hand. The geolocation button needs JavaScript.